This is the latest recevied weather packets stored in our database for station/object KG5APU. If no packets are shown the sender has not sent any weather packets the latest 10 day(s).
| Time | Temp. | Humidity | Pressure | Rain* | Wind** | Luminosity | Snow |
|---|---|---|---|---|---|---|---|
| 1777846340 | 27.78° C | 36% | 1016.9 hPa | 0 mm | - | 412 W/m² | - |
| 1777845739 | 27.22° C | 37% | 1016.9 hPa | 0 mm | - | 438 W/m² | - |
| 1777845138 | 27.22° C | 35% | 1016.8 hPa | 0 mm | - | 471 W/m² | - |
| 1777844538 | 27.22° C | 35% | 1017.2 hPa | 0 mm | - | 500 W/m² | - |
| 1777843933 | 28.33° C | 33% | 1017.2 hPa | 0 mm | - | 531 W/m² | - |
| 1777843328 | 27.78° C | 35% | 1017.5 hPa | 0 mm | - | 566 W/m² | - |
| 1777842727 | 27.78° C | 35% | 1017.8 hPa | 0 mm | - | 597 W/m² | - |
| 1777842127 | 27.78° C | 34% | 1017.8 hPa | 0 mm | - | 626 W/m² | - |
| 1777841524 | 27.78° C | 34% | 1017.7 hPa | 0 mm | - | 658 W/m² | - |
| 1777840924 | 27.22° C | 33% | 1018 hPa | 0 mm | - | 681 W/m² | - |
| 1777840319 | 27.78° C | 35% | 1018.8 hPa | 0 mm | - | 704 W/m² | - |
| 1777839719 | 27.78° C | 36% | 1018.8 hPa | 0 mm | - | 734 W/m² | - |
| 1777839115 | 27.22° C | 36% | 1018.9 hPa | 0 mm | - | 742 W/m² | - |
| 1777838513 | 27.22° C | 35% | 1019 hPa | 0 mm | - | 783 W/m² | - |
| 1777837913 | 26.67° C | 38% | 1019.1 hPa | 0 mm | - | 812 W/m² | - |
| 1777837311 | 27.22° C | 36% | 1019.2 hPa | 0 mm | - | 818 W/m² | - |
| 1777836709 | 26.67° C | 38% | 1019.5 hPa | 0 mm | - | 826 W/m² | - |
| 1777836106 | 26.67° C | 37% | 1019.6 hPa | 0 mm | - | 834 W/m² | - |
| 1777835506 | 26.67° C | 38% | 1019.5 hPa | 0 mm | - | 842 W/m² | - |
| 1777834906 | 26.67° C | 38% | 1019.7 hPa | 0 mm | - | 886 W/m² | - |
| 1777834304 | 26.67° C | 42% | 1019.9 hPa | 0 mm | - | 853 W/m² | - |
| 1777833702 | 27.22° C | 38% | 1020 hPa | 0 mm | - | 842 W/m² | - |
| 1777833102 | 26.11° C | 38% | 1020.3 hPa | 0 mm | - | 849 W/m² | - |
| 1777832498 | 26.11° C | 40% | 1020.4 hPa | 0 mm | - | 850 W/m² | - |
| 1777831897 | 26.11° C | 40% | 1020.7 hPa | 0 mm | - | 852 W/m² | - |
* Rain latest hour (hover to see other rain measurements)
** Current wind speed in m/s (hover to see current wind gust speed)